LANDSAT 8

导读

LANDSAT 8是美国发射的陆地卫星,于2013年2月11日发射升空,作为美国陆地卫星系列的重要成员,它延续了 Landsat 系列对地观测的长期任务,携带了OLI陆地成像仪和TIRS热红外传感器,能为全球提供多光谱、中分辨率的地表观测数据,广泛应用于资源调查、环境监测、气候变化研究等多个领域,持续为地球科学研究提供支撑。

Basic Information
目录编号:
39084
目录名称:
LANDSAT 8
国际标识:
2013-008A
轨道中心:
EARTH
卫星名称:
LANDSAT 8
卫星全名:
--
卫星状态:
在轨 (已飞行4964 天)
发射日期:
2013-02-11 UTC
国别 :
美国 (US)
星等 :
--
This satellite is enrolled in the Space Conjunction Data Service (SCDS) and the current flight risk assessment level is: No High Risk
Orbit Information
数据来源 国际轨道数据
星历时间: 2026-09-15T22:24:28+0800
8小时前
查看轨道信息
半长轴: 7080.691km
偏心率: 0.0001321
轨道倾角: 98.222°
近地点辐角 95.043°
升交点赤经 327.623°
平近点角 265.091°
近地点: 701.618km
远地点: 703.49km
周期: 98.826分钟
每日圈数: 14.570998
Detailed Information
使用方式:
暂无
2D Orbit Map
3D Orbit Map
Orbit Altitude Analysis Chart
Orbit Inclination Analysis Chart
Orbit Comprehensive Analysis Chart
View Comprehensive Chart
Conjunction Data List
Event ID Objects TCA Miss Dist (km) Collision Risk Probability Collision Risk Index (CRI) Action
CDM_260917-224303-494603-908422
2026-09-17T
22:43:47+0000
1.536 km
极远距离
6.208756E-6 低风险 0.51
CDM_260916-080702-807003-908427
CZ-4 DEB (28070)
2026-09-16T
08:07:59+0000
2.697 km
极远距离
4.180437E-7 极低风险 0.27
Miss Distance Evolution Trend with All Objects Subscribe to Flight Safety Assessment
Collision Probability Evolution Trend with All Objects Subscribe to Flight Safety Assessment